星链-4141 (STARLINK-4141 )

导读

STARLINK-4141是美国SpaceX公司星链(Starlink)卫星互联网项目中的一颗卫星,于2022年7月17日发射入轨。星链计划旨在通过大规模低轨卫星星座,为全球提供高速互联网接入服务,该卫星属于星链组网的组成部分,服务于全球网络覆盖的构建,推动卫星互联网的部署进程。

基本信息
目录编号:
53138
目录名称:
STARLINK-4141
国际标识:
2022-083G
轨道中心:
EARTH
卫星名称:
星链-4141
卫星全名:
星链-4141 (STARLINK-4141 )
卫星状态:
在轨 (已飞行1518 天)
发射日期:
2022-07-17 UTC
国别 :
美国 (US)
星等 :
--
该卫星已列入 空间交会检测服务 Space Conjunction Data Service (SCDS) ,当前飞行风险评估等级: 无高风险
轨道信息
数据来源 国际轨道数据 AOE轨道数据
星历时间 2026-09-12T00:40:50+0800
16小时前
查看轨道信息
2026-09-06T16:00:00+0800
6天前
查看轨道信息
半长轴 6848.875km 6848.792km
偏心率 0.0001127 0.000097
轨道倾角 53.161° 53.159°
近地点辐角 75.013° 83.273°
升交点赤经 44.825° 69.789°
平近点角 285.100° 215.315°
近地点 469.966km 469.99km
远地点 471.51km 471.32km
周期 94.013分钟 94.011分钟
每日圈数 15.317007 15.317286
详细信息
固有亮度:
5
最大亮度:
2.5
卫星平台:
Starlink v1.5
覆盖范围:
全球
运营商:
太空探索技术公司
运营商所在国:
美国
制造商(研发单位):
太空探索技术公司
制造商所在国:
美国
使用方式:
暂无
卫星简介
星链(Starlink)计划是由太空探索技术公司(SpaceX)提出的一个巨型低轨卫星互联网星座项目,计划在2019年至2024年间在太空搭建由约1.2万颗卫星组成的“星链”网络,其中1584颗将部署在地球上空550千米处的近地轨道,并从2020年开始工作。该卫星仍在工作。
2D轨道图
3D轨道图
轨道高度分析图
轨道倾角分析图
轨道综合分析图
查看轨道综合分析图
交会数据列表
事件ID 空间交会对象 最接近时刻(TCA) 交会距离 交会风险概率(CRP) 交会风险指数(CRI) 操作
CDM_260913-102905-313806-124124
OBJECT D (61241)
2026-09-13T
10:29:14+0000
2.103 km
极远距离
2.386642E-6 低风险 0.43
CDM_260913-173905-313806-323921
2026-09-13T
17:39:46+0000
2.871 km
极远距离
1.309004E-6 低风险 0.37
CDM_260912-202705-313806-877521
2026-09-12T
20:27:17+0000
2.832 km
极远距离
1.30146E-6 低风险 0.37
CDM_260914-105505-313806-759721
2026-09-14T
10:55:11+0000
2.733 km
极远距离
1.191848E-6 低风险 0.37
与全量物体交会距离演化趋势
与全量物体交会风险概率演化趋势